Location: Brookfield Center
(41.2406°N, 80.5579°W)
Time: 12:41:56
(UTC+00:00)

NOSS 3-2 (A) - Pass Details

Date: 18 January 2020
Orbit: 809 x 1399 km, 63.4° (Epoch: 20 February)

Event Time Altitude Azimuth Distance (km) Brightness Sun altitude
Exits shadow 11:05:33 12° 330° (NNW) 2,976 5.6 -18.3°
Maximum altitude 11:12:45 69° 53° (NE) 1,371 4.3 -17.0°
Drops below altitude 10° 11:21:10 10° 136° (SE) 3,434 7.2 -15.5°
Sets 11:24:11 0° 138° (SE) 4,433 7.9 -14.9°
